カタログに戻る

METEOR 2-1 DEB

運用中PO
NORAD 57492·DEBRIS·🇷🇺 Russia

打ち上げ Jul 11, 1975 から Plesetsk Cosmodrome

Loading…

次のパス (今後24時間)

TLE

古いSource: Space-Track

元期: Aug 22, 2026, 20:34 UTC

1 57492U 75064F   26234.85748935  .00000974  00000-0  37546-3 0  9993
2 57492  81.2750 292.4919 0008137 228.6446 131.4036 14.29628025412519

AllMySatでMETEOR 2-1 DEBをリアルタイム追跡

Download on the App Store